Погода в Больших Прудах

Россия / Орловская область     53°01′44″N   37°05′11″E
темп.,
°C
ветер,
м/с
пор.,
м/с
влажн.,
%
обл.,
%
осадки,
мм/ч
давл.,
гПа
погр.,
м
13 апреля, вт
вт1300:00+12юв5157078 0.0 1024277
03:00+9юв3882100 0.0 1024115
06:00+8юв3881100 0.0 1024135
09:00+13юв5116192 0.0 1024355
12:00+18юв694690 0.0 1023986
15:00+19юв793599 0.0 10221544
18:00+18юв510393 0.0 1021330
21:00+13юв4115525 0.0 1021202
14 апреля, ср
ср1400:00+11юв496799 0.0 1021155
03:00+9юв3573100 0.0 102172
06:00+8вюв347725 0.0 102061
09:00+13юв58535 0.0 1019377
12:00+17юв673657 0.0 1018968
15:00+18ююв6836100 0.0 10161791
18:00+17юв3745100 0.0 1016204
21:00+11з357997 0.0 1017100
15 апреля, чт
чт1500:00+10ссв2284100 0.0 101618
03:00+9ссв1185100 0.0 101611
06:00+9св1181100 0.0 101515
09:00+12ююв1167100 0.0 1016142
12:00+15в3450100 0.0 1014632
15:00+17в344498 0.0 10131193
18:00+14юз466879 0.2 1013205
21:00+11ююв238282 1.3 101488
16 апреля, пт
пт1600:00+10вюв1186100 0.0 101411
03:00+10юз0186100 0.1 101411
06:00+9всв2388100 0.1 101433
09:00+11ююв4682100 0.8 1015344
12:00+11юв248099 1.4 1016308
15:00+15вюв355991 1.5 10151027
18:00+15ююв246288 0.2 1015150
21:00+11сз128575 1.3 101722
17 апреля, сб
сб1700:00+10ссв3491100 1.0 1018108
03:00+10всв71388100 2.7 1018487
06:00+9всв71388100 0.6 1019556
09:00+9всв9138292 0.8 1020672
12:00+11всв91374100 0.4 10211048
15:00+12всв7126598 0.4 10221227
18:00+12всв8134929 0.0 10231149
21:00+8всв715560 0.0 1025514